星链-1216 (STARLINK-1216 )

导读 | 豆包AI

STARLINK-1216是美国太空探索技术公司(SpaceX)星链(Starlink)星座中的卫星,于2020年2月17日发射,属于星链早期组网批次,主要为全球提供高速低延迟卫星互联网服务。星链卫星部署在近地轨道,该卫星服役多年,支撑起全球范围,尤其是偏远地区的网络覆盖能力。

基本信息
目录编号:
45185
目录名称:
STARLINK-1216
国际标识:
2020-012H
轨道中心:
EARTH
卫星名称:
星链-1216
卫星全名:
星链-1216 (STARLINK-1216 )
卫星状态:
在轨 (已飞行2217 天)
发射日期:
2020-02-17 UTC
国别 :
美国 (US)
星等 :
--
轨道信息
数据来源 国际轨道数据 AOE轨道数据
星历时间 2026-03-13T14:30:43+0800
1天前
查看轨道信息
2026-03-11T16:00:00+0800
3天前
查看轨道信息
半长轴 6853.335km 6853.331km
偏心率 0.0001225 0.0000578
轨道倾角 53.160° 53.158°
近地点辐角 83.571° 354.369°
升交点赤经 22.594° 31.600°
平近点角 276.543° 123.938°
近地点 474.358km 474.797km
远地点 476.038km 475.591km
周期 94.105分钟 94.105分钟
每日圈数 15.302059 15.302072
详细信息
固有亮度:
5
最大亮度:
2.5
卫星平台:
Starlink V1.0
覆盖范围:
全球
运营商:
太空探索技术公司
运营商所在国:
美国
制造商(研发单位):
太空探索技术公司
制造商所在国:
美国
使用方式:
暂无
卫星简介
星链(Starlink)计划是由太空探索技术公司(SpaceX)提出的一个巨型低轨卫星互联网星座项目,计划在2019年至2024年间在太空搭建由约1.2万颗卫星组成的“星链”网络,其中1584颗将部署在地球上空550千米处的近地轨道,并从2020年开始工作。该卫星仍在工作。
2D轨道图
3D轨道图
轨道高度分析图
轨道倾角分析图
轨道综合分析图
查看轨道综合分析图